Time,TemperatureF,DewpointF,PressureIn,WindDirection,WindDirectionDegrees,WindSpeedMPH,WindSpeedGustMPH,Humidity,HourlyPrecipIn,Conditions,Clouds,dailyrainin,SolarRadiationWatts/m^2,SoftwareType,DateUTC
2017-05-26 00:04:00,57.0,55.3,29.65,NW,319,3.0,5.0,94,0.00,,,0.00,0,Wunderground v.1.15,2017-05-26 04:04:00,
2017-05-26 00:11:00,56.9,55.2,29.65,NW,319,2.0,3.0,94,0.00,,,0.00,0,Wunderground v.1.15,2017-05-26 04:11:00,
2017-05-26 00:16:00,56.9,55.2,29.66,NNW,333,1.0,3.0,94,0.00,,,0.00,0,Wunderground v.1.15,2017-05-26 04:16:00,
2017-05-26 00:23:00,56.9,55.2,29.66,NNW,333,0.0,0.0,94,0.00,,,0.00,0,Wunderground v.1.15,2017-05-26 04:23:00,
2017-05-26 00:29:00,56.9,55.2,29.66,NW,323,0.0,0.0,94,0.00,,,0.00,0,Wunderground v.1.15,2017-05-26 04:29:00,
2017-05-26 00:34:00,56.9,55.2,29.66,NW,311,1.0,7.0,94,0.00,,,0.00,0,Wunderground v.1.15,2017-05-26 04:34:00,
2017-05-26 00:41:00,56.8,55.1,29.66,NW,321,4.0,7.0,94,0.00,,,0.00,0,Wunderground v.1.15,2017-05-26 04:41:00,
2017-05-26 00:46:00,56.7,55.0,29.66,NW,305,2.0,7.0,94,0.00,,,0.00,0,Wunderground v.1.15,2017-05-26 04:46:00,
2017-05-26 00:53:00,56.6,54.9,29.66,NNW,331,2.0,7.0,94,0.00,,,0.00,0,Wunderground v.1.15,2017-05-26 04:53:00,
2017-05-26 00:59:00,56.6,54.9,29.66,NW,310,3.0,4.0,94,0.00,,,0.00,0,Wunderground v.1.15,2017-05-26 04:59:00,
2017-05-26 01:05:00,56.5,54.8,29.66,NW,320,4.0,4.0,94,0.00,,,0.00,0,Wunderground v.1.15,2017-05-26 05:05:00,
2017-05-26 01:10:00,56.4,54.7,29.66,NW,322,2.0,6.0,94,0.00,,,0.00,0,Wunderground v.1.15,2017-05-26 05:10:00,
2017-05-26 01:17:00,56.3,54.6,29.66,NW,324,1.0,6.0,94,0.00,,,0.00,0,Wunderground v.1.15,2017-05-26 05:17:00,
2017-05-26 01:22:00,56.2,54.5,29.66,NW,318,1.0,5.0,94,0.00,,,0.00,0,Wunderground v.1.15,2017-05-26 05:22:00,
2017-05-26 01:29:00,56.2,54.5,29.66,NW,322,2.0,5.0,94,0.00,,,0.00,0,Wunderground v.1.15,2017-05-26 05:29:00,
2017-05-26 01:34:00,56.3,54.6,29.66,NW,316,3.0,6.0,94,0.00,,,0.00,0,Wunderground v.1.15,2017-05-26 05:34:00,
2017-05-26 01:41:00,56.3,54.3,29.66,NNW,331,3.0,6.0,93,0.00,,,0.00,0,Wunderground v.1.15,2017-05-26 05:41:00,
2017-05-26 01:46:00,56.2,54.2,29.67,NW,323,3.0,6.0,93,0.00,,,0.00,0,Wunderground v.1.15,2017-05-26 05:46:00,
2017-05-26 01:53:00,56.2,54.2,29.67,WNW,302,3.0,6.0,93,0.00,,,0.00,0,Wunderground v.1.15,2017-05-26 05:53:00,
2017-05-26 01:59:00,56.2,54.2,29.67,NW,319,3.0,3.0,93,0.00,,,0.00,0,Wunderground v.1.15,2017-05-26 05:59:00,
2017-05-26 02:04:00,56.1,54.1,29.67,NW,323,2.0,3.0,93,0.00,,,0.00,0,Wunderground v.1.15,2017-05-26 06:04:00,
2017-05-26 02:11:00,56.1,54.1,29.67,NW,309,2.0,4.0,93,0.00,,,0.00,0,Wunderground v.1.15,2017-05-26 06:11:00,
2017-05-26 02:16:00,56.1,54.1,29.67,NW,317,1.0,4.0,93,0.00,,,0.00,0,Wunderground v.1.15,2017-05-26 06:16:00,
2017-05-26 02:22:00,56.0,54.0,29.68,NW,311,1.0,4.0,93,0.00,,,0.00,0,Wunderground v.1.15,2017-05-26 06:22:00,
2017-05-26 02:29:00,56.0,54.0,29.68,NW,326,2.0,2.0,93,0.00,,,0.00,0,Wunderground v.1.15,2017-05-26 06:29:00,
2017-05-26 02:34:00,56.0,54.0,29.68,NW,324,3.0,9.0,93,0.00,,,0.00,0,Wunderground v.1.15,2017-05-26 06:34:00,
2017-05-26 02:41:00,56.0,54.0,29.68,NW,323,1.0,9.0,93,0.00,,,0.00,0,Wunderground v.1.15,2017-05-26 06:41:00,
2017-05-26 02:46:00,56.0,54.0,29.69,NW,321,0.0,9.0,93,0.00,,,0.00,0,Wunderground v.1.15,2017-05-26 06:46:00,
2017-05-26 02:55:00,56.1,54.1,29.69,NW,321,0.0,9.0,93,0.00,,,0.00,0,Wunderground v.1.15,2017-05-26 06:55:00,
2017-05-26 03:01:00,56.2,54.2,29.69,NNW,329,0.0,0.0,93,0.00,,,0.00,0,Wunderground v.1.15,2017-05-26 07:01:00,
2017-05-26 03:06:00,56.2,54.2,29.69,NNW,329,0.0,0.0,93,0.00,,,0.00,0,Wunderground v.1.15,2017-05-26 07:06:00,
2017-05-26 03:13:00,56.2,54.2,29.69,NNW,329,0.0,0.0,93,0.00,,,0.00,0,Wunderground v.1.15,2017-05-26 07:13:00,
2017-05-26 03:18:00,56.2,54.2,29.69,NNW,329,0.0,0.0,93,0.00,,,0.00,0,Wunderground v.1.15,2017-05-26 07:18:00,
2017-05-26 03:25:00,56.2,54.2,29.69,North,5,0.0,0.0,93,0.00,,,0.00,0,Wunderground v.1.15,2017-05-26 07:25:00,
2017-05-26 03:30:00,56.2,54.2,29.70,NNW,330,0.0,7.0,93,0.00,,,0.00,0,Wunderground v.1.15,2017-05-26 07:30:00,
2017-05-26 03:36:00,56.1,54.1,29.70,NNW,331,0.0,7.0,93,0.00,,,0.00,0,Wunderground v.1.15,2017-05-26 07:36:00,
2017-05-26 03:43:00,56.0,54.0,29.70,NW,325,1.0,7.0,93,0.00,,,0.00,0,Wunderground v.1.15,2017-05-26 07:43:00,
2017-05-26 03:48:00,56.0,54.0,29.70,NW,310,2.0,2.0,93,0.00,,,0.00,0,Wunderground v.1.15,2017-05-26 07:48:00,
2017-05-26 03:55:00,56.0,54.0,29.71,NW,311,0.0,7.0,93,0.00,,,0.00,0,Wunderground v.1.15,2017-05-26 07:55:00,
2017-05-26 04:00:00,56.0,54.0,29.71,NW,321,0.0,0.0,93,0.00,,,0.00,0,Wunderground v.1.15,2017-05-26 08:00:00,
2017-05-26 04:07:00,56.0,54.0,29.71,NW,313,0.0,0.0,93,0.00,,,0.00,0,Wunderground v.1.15,2017-05-26 08:07:00,
2017-05-26 04:12:00,56.0,53.7,29.71,NW,313,0.0,0.0,92,0.00,,,0.00,0,Wunderground v.1.15,2017-05-26 08:12:00,
2017-05-26 04:19:00,55.9,53.6,29.71,NW,314,0.0,0.0,92,0.00,,,0.00,0,Wunderground v.1.15,2017-05-26 08:19:00,
2017-05-26 04:24:00,56.0,53.7,29.71,NW,313,2.0,4.0,92,0.00,,,0.00,0,Wunderground v.1.15,2017-05-26 08:24:00,
2017-05-26 04:30:00,56.0,53.7,29.72,NW,315,1.0,2.0,92,0.00,,,0.00,0,Wunderground v.1.15,2017-05-26 08:30:00,
2017-05-26 04:37:00,56.0,53.7,29.72,NW,321,2.0,5.0,92,0.00,,,0.00,0,Wunderground v.1.15,2017-05-26 08:37:00,
2017-05-26 04:42:00,56.0,53.7,29.72,NW,307,2.0,5.0,92,0.00,,,0.00,0,Wunderground v.1.15,2017-05-26 08:42:00,
2017-05-26 04:49:00,56.0,53.7,29.72,NNE,13,3.0,3.0,92,0.00,,,0.00,0,Wunderground v.1.15,2017-05-26 08:49:00,
2017-05-26 04:54:00,55.9,53.6,29.73,NW,320,3.0,4.0,92,0.00,,,0.00,0,Wunderground v.1.15,2017-05-26 08:54:00,
2017-05-26 05:01:00,55.9,53.6,29.73,NW,321,2.0,4.0,92,0.00,,,0.00,0,Wunderground v.1.15,2017-05-26 09:01:00,
2017-05-26 05:06:00,55.8,53.5,29.73,NW,325,1.0,4.0,92,0.00,,,0.00,0,Wunderground v.1.15,2017-05-26 09:06:00,
2017-05-26 05:13:00,55.7,53.4,29.74,NNW,338,2.0,2.0,92,0.00,,,0.00,0,Wunderground v.1.15,2017-05-26 09:13:00,
2017-05-26 05:18:00,55.5,53.2,29.74,NW,317,3.0,3.0,92,0.00,,,0.00,0,Wunderground v.1.15,2017-05-26 09:18:00,
2017-05-26 05:25:00,55.3,53.0,29.74,NNW,340,3.0,6.0,92,0.00,,,0.00,0,Wunderground v.1.15,2017-05-26 09:25:00,
2017-05-26 05:30:00,55.2,52.9,29.75,NNW,333,1.0,6.0,92,0.00,,,0.00,0,Wunderground v.1.15,2017-05-26 09:30:00,
2017-05-26 05:37:00,55.1,52.8,29.75,NNW,344,0.0,6.0,92,0.00,,,0.00,0,Wunderground v.1.15,2017-05-26 09:37:00,
2017-05-26 05:42:00,55.0,52.7,29.75,NNW,342,0.0,6.0,92,0.00,,,0.00,0,Wunderground v.1.15,2017-05-26 09:42:00,
2017-05-26 05:49:00,54.9,52.6,29.75,NNW,334,0.0,6.0,92,0.00,,,0.00,0,Wunderground v.1.15,2017-05-26 09:49:00,
2017-05-26 05:55:00,54.8,52.5,29.76,NW,309,0.0,6.0,92,0.00,,,0.00,0,Wunderground v.1.15,2017-05-26 09:55:00,
2017-05-26 06:00:00,54.8,52.5,29.76,NW,308,0.0,1.0,92,0.00,,,0.00,0,Wunderground v.1.15,2017-05-26 10:00:00,
2017-05-26 06:07:00,54.8,52.5,29.76,NW,309,0.0,1.0,92,0.00,,,0.00,0,Wunderground v.1.15,2017-05-26 10:07:00,
2017-05-26 06:12:00,54.8,52.5,29.77,NNW,331,0.0,4.0,92,0.00,,,0.00,0,Wunderground v.1.15,2017-05-26 10:12:00,
2017-05-26 06:19:00,54.8,52.5,29.77,NW,319,2.0,2.0,92,0.00,,,0.00,7,Wunderground v.1.15,2017-05-26 10:19:00,
2017-05-26 06:24:00,54.8,52.2,29.77,NW,314,1.0,2.0,91,0.00,,,0.00,11,Wunderground v.1.15,2017-05-26 10:24:00,
2017-05-26 06:31:00,54.8,52.2,29.78,NW,324,0.0,7.0,91,0.00,,,0.00,9,Wunderground v.1.15,2017-05-26 10:31:00,
2017-05-26 06:37:00,54.9,52.6,29.78,NW,325,0.0,7.0,92,0.00,,,0.00,7,Wunderground v.1.15,2017-05-26 10:37:00,
2017-05-26 06:42:00,54.9,52.3,29.78,WNW,298,1.0,7.0,91,0.00,,,0.00,14,Wunderground v.1.15,2017-05-26 10:42:00,
2017-05-26 06:49:00,54.9,52.3,29.79,West,270,2.0,2.0,91,0.00,,,0.00,18,Wunderground v.1.15,2017-05-26 10:49:00,
2017-05-26 06:54:00,55.0,52.4,29.78,NW,309,1.0,7.0,91,0.00,,,0.00,21,Wunderground v.1.15,2017-05-26 10:54:00,
2017-05-26 07:01:00,55.1,52.5,29.78,NW,310,2.0,2.0,91,0.00,,,0.00,28,Wunderground v.1.15,2017-05-26 11:01:00,
2017-05-26 07:06:00,55.1,52.5,29.78,NNW,336,1.0,2.0,91,0.00,,,0.00,32,Wunderground v.1.15,2017-05-26 11:06:00,
2017-05-26 07:13:00,55.2,52.6,29.79,NNW,327,1.0,2.0,91,0.00,,,0.00,42,Wunderground v.1.15,2017-05-26 11:13:00,
2017-05-26 07:18:00,55.3,52.7,29.79,NNW,336,2.0,2.0,91,0.00,,,0.00,33,Wunderground v.1.15,2017-05-26 11:18:00,
2017-05-26 07:24:00,55.3,52.7,29.80,NW,315,2.0,4.0,91,0.00,,,0.00,39,Wunderground v.1.15,2017-05-26 11:24:00,
2017-05-26 07:31:00,55.3,52.4,29.80,WNW,302,4.0,6.0,90,0.00,,,0.00,51,Wunderground v.1.15,2017-05-26 11:31:00,
2017-05-26 07:36:00,55.4,52.5,29.80,WNW,299,4.0,6.0,90,0.00,,,0.00,54,Wunderground v.1.15,2017-05-26 11:36:00,
2017-05-26 07:42:00,55.4,52.5,29.81,WNW,302,4.0,6.0,90,0.00,,,0.00,60,Wunderground v.1.15,2017-05-26 11:42:00,
2017-05-26 07:49:00,55.5,52.6,29.81,WNW,294,4.0,4.0,90,0.00,,,0.00,63,Wunderground v.1.15,2017-05-26 11:49:00,
2017-05-26 07:54:00,55.7,52.8,29.81,NW,308,2.0,6.0,90,0.00,,,0.00,60,Wunderground v.1.15,2017-05-26 11:54:00,
2017-05-26 08:01:00,55.8,52.9,29.82,WNW,301,2.0,5.0,90,0.00,,,0.00,56,Wunderground v.1.15,2017-05-26 12:01:00,
2017-05-26 08:06:00,55.8,52.9,29.82,WNW,296,3.0,5.0,90,0.00,,,0.00,72,Wunderground v.1.15,2017-05-26 12:06:00,
2017-05-26 08:13:00,55.9,53.0,29.82,NW,317,2.0,4.0,90,0.00,,,0.00,58,Wunderground v.1.15,2017-05-26 12:13:00,
2017-05-26 08:18:00,56.0,53.1,29.82,NW,306,1.0,1.0,90,0.00,,,0.00,74,Wunderground v.1.15,2017-05-26 12:18:00,
2017-05-26 08:24:00,56.1,53.2,29.82,NW,306,1.0,3.0,90,0.00,,,0.00,69,Wunderground v.1.15,2017-05-26 12:24:00,
2017-05-26 08:31:00,56.2,53.3,29.83,NW,305,2.0,8.0,90,0.00,,,0.00,58,Wunderground v.1.15,2017-05-26 12:31:00,
2017-05-26 08:36:00,56.2,53.3,29.83,NW,323,2.0,8.0,90,0.00,,,0.00,63,Wunderground v.1.15,2017-05-26 12:36:00,
2017-05-26 08:43:00,56.3,53.4,29.83,NW,309,1.0,8.0,90,0.00,,,0.00,60,Wunderground v.1.15,2017-05-26 12:43:00,
2017-05-26 08:48:00,56.4,53.2,29.83,NW,318,1.0,1.0,89,0.00,,,0.00,81,Wunderground v.1.15,2017-05-26 12:48:00,
2017-05-26 08:55:00,56.4,53.2,29.83,NW,309,2.0,8.0,89,0.00,,,0.00,86,Wunderground v.1.15,2017-05-26 12:55:00,
2017-05-26 09:00:00,56.6,53.4,29.83,NW,325,4.0,5.0,89,0.00,,,0.00,90,Wunderground v.1.15,2017-05-26 13:00:00,
2017-05-26 09:07:00,56.7,53.5,29.84,WNW,299,4.0,5.0,89,0.00,,,0.00,91,Wunderground v.1.15,2017-05-26 13:07:00,
2017-05-26 09:12:00,56.8,53.3,29.83,WNW,302,3.0,4.0,88,0.00,,,0.00,91,Wunderground v.1.15,2017-05-26 13:12:00,
2017-05-26 09:18:00,56.9,53.4,29.84,NW,313,3.0,3.0,88,0.00,,,0.00,100,Wunderground v.1.15,2017-05-26 13:18:00,
2017-05-26 09:25:00,57.0,53.5,29.84,NW,314,4.0,5.0,88,0.00,,,0.00,118,Wunderground v.1.15,2017-05-26 13:25:00,
2017-05-26 09:30:00,57.2,53.7,29.84,NW,306,3.0,8.0,88,0.00,,,0.00,120,Wunderground v.1.15,2017-05-26 13:30:00,
2017-05-26 09:37:00,57.3,53.5,29.84,NW,304,1.0,8.0,87,0.00,,,0.00,151,Wunderground v.1.15,2017-05-26 13:37:00,
2017-05-26 09:42:00,57.4,53.6,29.84,NNW,327,1.0,8.0,87,0.00,,,0.00,144,Wunderground v.1.15,2017-05-26 13:42:00,
2017-05-26 09:49:00,57.6,53.8,29.84,WNW,296,0.0,8.0,87,0.00,,,0.00,163,Wunderground v.1.15,2017-05-26 13:49:00,
2017-05-26 09:55:00,57.7,53.9,29.84,WNW,297,0.0,8.0,87,0.00,,,0.00,151,Wunderground v.1.15,2017-05-26 13:55:00,
2017-05-26 10:00:00,57.9,53.7,29.84,NW,312,1.0,4.0,86,0.00,,,0.00,165,Wunderground v.1.15,2017-05-26 14:00:00,
2017-05-26 10:09:00,58.1,54.2,29.84,NW,312,0.0,0.0,87,0.00,,,0.00,162,Wunderground v.1.15,2017-05-26 14:09:00,
2017-05-26 10:14:00,58.2,54.0,29.84,NW,314,1.0,5.0,86,0.00,,,0.00,118,Wunderground v.1.15,2017-05-26 14:14:00,
2017-05-26 10:21:00,58.1,53.9,29.84,NW,310,3.0,4.0,86,0.00,,,0.00,118,Wunderground v.1.15,2017-05-26 14:21:00,
2017-05-26 10:26:00,58.1,53.9,29.84,NW,325,4.0,5.0,86,0.00,,,0.00,186,Wunderground v.1.15,2017-05-26 14:26:00,
2017-05-26 10:33:00,58.2,53.7,29.84,NNW,333,4.0,7.0,85,0.00,,,0.00,148,Wunderground v.1.15,2017-05-26 14:33:00,
2017-05-26 10:38:00,58.4,53.9,29.85,NW,316,4.0,7.0,85,0.00,,,0.00,269,Wunderground v.1.15,2017-05-26 14:38:00,
2017-05-26 10:44:00,58.7,54.2,29.85,WNW,299,3.0,7.0,85,0.00,,,0.00,297,Wunderground v.1.15,2017-05-26 14:44:00,
2017-05-26 10:51:00,59.1,54.3,29.85,NNW,331,3.0,7.0,84,0.00,,,0.00,338,Wunderground v.1.15,2017-05-26 14:51:00,
2017-05-26 10:56:00,59.4,54.2,29.85,NNW,342,4.0,7.0,83,0.00,,,0.00,336,Wunderground v.1.15,2017-05-26 14:56:00,
2017-05-26 11:02:00,59.6,54.4,29.85,NNW,331,2.0,5.0,83,0.00,,,0.00,290,Wunderground v.1.15,2017-05-26 15:02:00,
2017-05-26 11:08:00,59.9,54.7,29.85,NNE,12,3.0,4.0,83,0.00,,,0.00,441,Wunderground v.1.15,2017-05-26 15:08:00,
2017-05-26 11:15:00,60.4,54.9,29.85,NNW,327,4.0,7.0,82,0.00,,,0.00,422,Wunderground v.1.15,2017-05-26 15:15:00,
2017-05-26 11:20:00,60.8,54.9,29.86,NNW,327,5.0,6.0,81,0.00,,,0.00,432,Wunderground v.1.15,2017-05-26 15:20:00,
2017-05-26 11:26:00,61.0,54.4,29.86,WNW,284,4.0,6.0,79,0.00,,,0.00,302,Wunderground v.1.15,2017-05-26 15:26:00,
2017-05-26 11:33:00,61.1,55.2,29.86,WNW,297,5.0,9.0,81,0.00,,,0.00,336,Wunderground v.1.15,2017-05-26 15:33:00,
2017-05-26 11:38:00,61.2,55.0,29.86,WNW,293,3.0,9.0,80,0.00,,,0.00,264,Wunderground v.1.15,2017-05-26 15:38:00,
2017-05-26 11:45:00,60.9,54.3,29.86,NW,304,4.0,9.0,79,0.00,,,0.00,316,Wunderground v.1.15,2017-05-26 15:45:00,
2017-05-26 11:50:00,60.9,54.7,29.86,WNW,289,5.0,9.0,80,0.00,,,0.00,457,Wunderground v.1.15,2017-05-26 15:50:00,
2017-05-26 11:57:00,61.4,54.5,29.86,NW,304,5.0,9.0,78,0.00,,,0.00,512,Wunderground v.1.15,2017-05-26 15:57:00,
2017-05-26 12:02:00,61.7,54.8,29.86,NNW,329,4.0,5.0,78,0.00,,,0.00,383,Wunderground v.1.15,2017-05-26 16:02:00,
2017-05-26 12:08:00,61.9,54.6,29.86,WNW,303,4.0,4.0,77,0.00,,,0.00,278,Wunderground v.1.15,2017-05-26 16:08:00,
2017-05-26 12:15:00,61.9,54.6,29.86,NW,309,5.0,5.0,77,0.00,,,0.00,311,Wunderground v.1.15,2017-05-26 16:15:00,
2017-05-26 12:20:00,62.0,54.7,29.86,WNW,298,4.0,5.0,77,0.00,,,0.00,527,Wunderground v.1.15,2017-05-26 16:20:00,
2017-05-26 12:27:00,62.7,55.4,29.86,WNW,289,3.0,6.0,77,0.00,,,0.00,552,Wunderground v.1.15,2017-05-26 16:27:00,
2017-05-26 12:32:00,62.9,54.9,29.86,West,271,3.0,9.0,75,0.00,,,0.00,522,Wunderground v.1.15,2017-05-26 16:32:00,
2017-05-26 12:39:00,63.1,55.4,29.86,WNW,290,5.0,5.0,76,0.00,,,0.00,661,Wunderground v.1.15,2017-05-26 16:39:00,
2017-05-26 12:45:00,63.4,55.3,29.86,NNW,328,5.0,9.0,75,0.00,,,0.00,784,Wunderground v.1.15,2017-05-26 16:45:00,
2017-05-26 12:50:00,64.1,56.0,29.86,NNW,329,4.0,9.0,75,0.00,,,0.00,425,Wunderground v.1.15,2017-05-26 16:50:00,
2017-05-26 12:57:00,64.4,56.7,29.86,NW,321,3.0,9.0,76,0.00,,,0.00,432,Wunderground v.1.15,2017-05-26 16:57:00,
2017-05-26 13:02:00,64.8,55.6,29.86,NNW,332,3.0,6.0,72,0.00,,,0.00,438,Wunderground v.1.15,2017-05-26 17:02:00,
2017-05-26 13:09:00,64.7,55.5,29.86,WSW,258,5.0,5.0,72,0.00,,,0.00,584,Wunderground v.1.15,2017-05-26 17:09:00,
2017-05-26 13:15:00,65.4,55.4,29.86,NNW,329,6.0,8.0,70,0.00,,,0.00,411,Wunderground v.1.15,2017-05-26 17:15:00,
2017-05-26 13:20:00,65.0,54.6,29.86,WNW,288,5.0,6.0,69,0.00,,,0.00,343,Wunderground v.1.15,2017-05-26 17:20:00,
2017-05-26 13:27:00,64.9,54.5,29.86,WNW,296,5.0,8.0,69,0.00,,,0.00,425,Wunderground v.1.15,2017-05-26 17:27:00,
2017-05-26 13:32:00,64.8,55.2,29.86,NW,306,5.0,9.0,71,0.00,,,0.00,415,Wunderground v.1.15,2017-05-26 17:32:00,
2017-05-26 13:39:00,64.8,55.2,29.86,NW,325,5.0,9.0,71,0.00,,,0.00,373,Wunderground v.1.15,2017-05-26 17:39:00,
2017-05-26 13:44:00,64.6,54.6,29.86,NW,313,5.0,9.0,70,0.00,,,0.00,432,Wunderground v.1.15,2017-05-26 17:44:00,
2017-05-26 13:50:00,64.8,54.4,29.86,NNW,329,4.0,9.0,69,0.00,,,0.00,415,Wunderground v.1.15,2017-05-26 17:50:00,
2017-05-26 13:59:00,64.9,54.5,29.86,WNW,294,4.0,4.0,69,0.00,,,0.00,392,Wunderground v.1.15,2017-05-26 17:59:00,
2017-05-26 14:05:00,65.4,55.7,29.86,NNW,346,2.0,6.0,71,0.00,,,0.00,557,Wunderground v.1.15,2017-05-26 18:05:00,
2017-05-26 14:10:00,65.8,56.1,29.86,NNW,342,3.0,3.0,71,0.00,,,0.00,445,Wunderground v.1.15,2017-05-26 18:10:00,
2017-05-26 14:16:00,65.9,56.2,29.86,North,350,4.0,4.0,71,0.00,,,0.00,392,Wunderground v.1.15,2017-05-26 18:16:00,
2017-05-26 14:23:00,65.7,55.2,29.86,NNW,342,4.0,4.0,69,0.00,,,0.00,388,Wunderground v.1.15,2017-05-26 18:23:00,
2017-05-26 14:29:00,65.8,56.1,29.86,NW,306,2.0,2.0,71,0.00,,,0.00,278,Wunderground v.1.15,2017-05-26 18:29:00,
2017-05-26 14:34:00,65.7,55.2,29.86,North,360,1.0,10.0,69,0.00,,,0.00,364,Wunderground v.1.15,2017-05-26 18:34:00,
2017-05-26 14:41:00,65.8,55.3,29.86,NW,325,4.0,10.0,69,0.00,,,0.00,425,Wunderground v.1.15,2017-05-26 18:41:00,
2017-05-26 14:46:00,65.7,55.2,29.86,NW,306,4.0,10.0,69,0.00,,,0.00,336,Wunderground v.1.15,2017-05-26 18:46:00,
2017-05-26 14:53:00,65.7,55.6,29.85,NW,323,3.0,10.0,70,0.00,,,0.00,341,Wunderground v.1.15,2017-05-26 18:53:00,
2017-05-26 14:59:00,65.8,55.7,29.85,North,355,2.0,4.0,70,0.00,,,0.00,469,Wunderground v.1.15,2017-05-26 18:59:00,
2017-05-26 15:05:00,66.2,56.5,29.85,NW,313,3.0,4.0,71,0.00,,,0.00,563,Wunderground v.1.15,2017-05-26 19:05:00,
2017-05-26 15:10:00,66.7,56.6,29.84,NNW,342,3.0,4.0,70,0.00,,,0.00,693,Wunderground v.1.15,2017-05-26 19:10:00,
2017-05-26 15:17:00,67.0,56.1,29.84,NNE,25,3.0,7.0,68,0.00,,,0.00,846,Wunderground v.1.15,2017-05-26 19:17:00,
2017-05-26 15:23:00,67.2,56.3,29.84,WNW,293,4.0,5.0,68,0.00,,,0.00,833,Wunderground v.1.15,2017-05-26 19:23:00,
2017-05-26 15:29:00,67.3,55.5,29.84,North,355,4.0,6.0,66,0.00,,,0.00,837,Wunderground v.1.15,2017-05-26 19:29:00,
2017-05-26 15:34:00,67.4,56.9,29.84,NNE,13,4.0,9.0,69,0.00,,,0.00,749,Wunderground v.1.15,2017-05-26 19:34:00,
2017-05-26 15:40:00,67.7,55.9,29.85,WNW,296,2.0,2.0,66,0.00,,,0.00,670,Wunderground v.1.15,2017-05-26 19:40:00,
2017-05-26 15:47:00,67.5,55.3,29.85,NNW,338,3.0,9.0,65,0.00,,,0.00,246,Wunderground v.1.15,2017-05-26 19:47:00,
2017-05-26 15:52:00,67.3,56.0,29.85,NE,41,3.0,9.0,67,0.00,,,0.00,461,Wunderground v.1.15,2017-05-26 19:52:00,
2017-05-26 15:59:00,67.3,55.5,29.85,NW,305,3.0,3.0,66,0.00,,,0.00,369,Wunderground v.1.15,2017-05-26 19:59:00,
2017-05-26 16:04:00,67.4,56.1,29.85,NNW,327,2.0,3.0,67,0.00,,,0.00,329,Wunderground v.1.15,2017-05-26 20:04:00,
2017-05-26 16:11:00,67.7,56.8,29.85,North,350,0.0,1.0,68,0.00,,,0.00,482,Wunderground v.1.15,2017-05-26 20:11:00,
2017-05-26 16:16:00,67.9,56.1,29.85,NNW,332,0.0,1.0,66,0.00,,,0.00,445,Wunderground v.1.15,2017-05-26 20:16:00,
2017-05-26 16:23:00,68.1,56.7,29.85,NE,44,0.0,0.0,67,0.00,,,0.00,763,Wunderground v.1.15,2017-05-26 20:23:00,
2017-05-26 16:28:00,68.6,56.8,29.85,North,11,0.0,0.0,66,0.00,,,0.00,624,Wunderground v.1.15,2017-05-26 20:28:00,
2017-05-26 16:35:00,68.5,55.8,29.85,West,269,1.0,10.0,64,0.00,,,0.00,380,Wunderground v.1.15,2017-05-26 20:35:00,
2017-05-26 16:40:00,68.6,56.4,29.85,West,269,1.0,10.0,65,0.00,,,0.00,329,Wunderground v.1.15,2017-05-26 20:40:00,
2017-05-26 16:46:00,68.8,56.1,29.85,North,351,0.0,10.0,64,0.00,,,0.00,341,Wunderground v.1.15,2017-05-26 20:46:00,
2017-05-26 16:53:00,68.5,55.8,29.85,NNW,342,0.0,10.0,64,0.00,,,0.00,294,Wunderground v.1.15,2017-05-26 20:53:00,
2017-05-26 16:59:00,68.6,56.4,29.85,NNE,16,0.0,0.0,65,0.00,,,0.00,207,Wunderground v.1.15,2017-05-26 20:59:00,
2017-05-26 17:05:00,68.4,56.2,29.85,NW,314,0.0,0.0,65,0.00,,,0.00,227,Wunderground v.1.15,2017-05-26 21:05:00,
2017-05-26 17:10:00,68.1,55.9,29.86,WNW,297,0.0,0.0,65,0.00,,,0.00,209,Wunderground v.1.15,2017-05-26 21:10:00,
2017-05-26 17:17:00,67.8,56.0,29.86,WNW,297,0.0,0.0,66,0.00,,,0.00,213,Wunderground v.1.15,2017-05-26 21:17:00,
2017-05-26 17:22:00,67.9,56.9,29.86,WNW,297,0.0,0.0,68,0.00,,,0.00,156,Wunderground v.1.15,2017-05-26 21:22:00,
2017-05-26 17:29:00,67.7,55.9,29.86,WNW,297,0.0,0.0,66,0.00,,,0.00,181,Wunderground v.1.15,2017-05-26 21:29:00,
2017-05-26 17:34:00,67.7,56.3,29.86,WNW,297,0.0,2.0,67,0.00,,,0.00,192,Wunderground v.1.15,2017-05-26 21:34:00,
2017-05-26 17:41:00,67.6,55.4,29.86,WNW,297,0.0,2.0,65,0.00,,,0.00,181,Wunderground v.1.15,2017-05-26 21:41:00,
2017-05-26 17:46:00,67.6,55.4,29.86,WNW,297,0.0,2.0,65,0.00,,,0.00,165,Wunderground v.1.15,2017-05-26 21:46:00,
2017-05-26 17:53:00,67.6,55.8,29.86,NW,315,0.0,2.0,66,0.00,,,0.00,209,Wunderground v.1.15,2017-05-26 21:53:00,
2017-05-26 17:59:00,67.6,55.4,29.86,NW,315,0.0,0.0,65,0.00,,,0.00,209,Wunderground v.1.15,2017-05-26 21:59:00,
2017-05-26 18:05:00,67.7,55.1,29.86,NW,315,0.0,0.0,64,0.00,,,0.00,181,Wunderground v.1.15,2017-05-26 22:05:00,
2017-05-26 18:10:00,67.7,56.3,29.86,NW,315,0.0,0.0,67,0.00,,,0.00,186,Wunderground v.1.15,2017-05-26 22:10:00,
2017-05-26 18:16:00,67.7,55.9,29.86,NW,317,0.0,0.0,66,0.00,,,0.00,200,Wunderground v.1.15,2017-05-26 22:16:00,
2017-05-26 18:22:00,67.7,55.9,29.86,NW,317,0.0,0.0,66,0.00,,,0.00,181,Wunderground v.1.15,2017-05-26 22:22:00,
2017-05-26 18:29:00,67.8,55.6,29.86,WNW,303,0.0,0.0,65,0.00,,,0.00,202,Wunderground v.1.15,2017-05-26 22:29:00,
2017-05-26 18:35:00,67.8,56.4,29.86,NNW,327,0.0,0.0,67,0.00,,,0.00,165,Wunderground v.1.15,2017-05-26 22:35:00,
2017-05-26 18:40:00,67.7,55.1,29.86,NNW,327,0.0,0.0,64,0.00,,,0.00,137,Wunderground v.1.15,2017-05-26 22:40:00,
2017-05-26 18:47:00,67.7,55.9,29.86,NNW,327,0.0,0.0,66,0.00,,,0.00,114,Wunderground v.1.15,2017-05-26 22:47:00,
2017-05-26 18:53:00,67.7,55.9,29.85,NNW,327,0.0,0.0,66,0.00,,,0.00,125,Wunderground v.1.15,2017-05-26 22:53:00,
2017-05-26 18:59:00,67.6,55.8,29.85,NNW,327,0.0,0.0,66,0.00,,,0.00,104,Wunderground v.1.15,2017-05-26 22:59:00,
2017-05-26 19:05:00,67.6,56.7,29.86,NNW,327,0.0,0.0,68,0.00,,,0.00,90,Wunderground v.1.15,2017-05-26 23:05:00,
2017-05-26 19:10:00,67.4,55.2,29.86,NNW,327,0.0,0.0,65,0.00,,,0.00,74,Wunderground v.1.15,2017-05-26 23:10:00,
2017-05-26 19:17:00,67.3,55.1,29.86,NNW,327,0.0,0.0,65,0.00,,,0.00,58,Wunderground v.1.15,2017-05-26 23:17:00,
2017-05-26 19:25:00,67.1,55.4,29.87,NNW,339,0.0,0.0,66,0.00,,,0.00,51,Wunderground v.1.15,2017-05-26 23:25:00,
2017-05-26 19:30:00,67.1,56.2,29.87,NNW,339,0.0,0.0,68,0.00,,,0.00,54,Wunderground v.1.15,2017-05-26 23:30:00,
2017-05-26 19:37:00,67.0,56.5,29.87,NNW,339,0.0,0.0,69,0.00,,,0.00,58,Wunderground v.1.15,2017-05-26 23:37:00,
2017-05-26 19:42:00,66.9,57.6,29.87,NNW,339,0.0,0.0,72,0.00,,,0.00,51,Wunderground v.1.15,2017-05-26 23:42:00,
2017-05-26 19:49:00,66.8,58.2,29.87,NNW,339,0.0,0.0,74,0.00,,,0.00,37,Wunderground v.1.15,2017-05-26 23:49:00,
2017-05-26 19:54:00,66.5,58.3,29.87,NNW,339,0.0,0.0,75,0.00,,,0.00,37,Wunderground v.1.15,2017-05-26 23:54:00,
2017-05-26 20:01:00,66.1,57.9,29.87,NNW,339,0.0,0.0,75,0.00,,,0.00,44,Wunderground v.1.15,2017-05-27 00:01:00,
2017-05-26 20:07:00,65.9,57.7,29.87,NNW,339,0.0,0.0,75,0.00,,,0.00,42,Wunderground v.1.15,2017-05-27 00:07:00,
2017-05-26 20:12:00,65.8,58.4,29.86,NNW,339,0.0,0.0,77,0.00,,,0.00,39,Wunderground v.1.15,2017-05-27 00:12:00,
2017-05-26 20:19:00,65.6,57.8,29.87,NNW,339,0.0,0.0,76,0.00,,,0.00,28,Wunderground v.1.15,2017-05-27 00:19:00,
2017-05-26 20:24:00,65.2,57.8,29.86,NNW,339,0.0,0.0,77,0.00,,,0.00,19,Wunderground v.1.15,2017-05-27 00:24:00,
2017-05-26 20:30:00,64.8,57.1,29.87,NNW,339,0.0,0.0,76,0.00,,,0.00,18,Wunderground v.1.15,2017-05-27 00:30:00,
2017-05-26 20:36:00,64.6,57.2,29.87,NNW,339,0.0,0.0,77,0.00,,,0.00,11,Wunderground v.1.15,2017-05-27 00:36:00,
2017-05-26 20:42:00,64.4,57.7,29.87,NNW,339,0.0,0.0,79,0.00,,,0.00,5,Wunderground v.1.15,2017-05-27 00:42:00,
2017-05-26 20:48:00,64.1,57.8,29.87,NNW,339,0.0,0.0,80,0.00,,,0.00,0,Wunderground v.1.15,2017-05-27 00:48:00,
2017-05-26 20:54:00,63.8,57.9,29.87,NNW,339,0.0,0.0,81,0.00,,,0.00,0,Wunderground v.1.15,2017-05-27 00:54:00,
2017-05-26 21:01:00,63.3,57.4,29.86,NNW,339,0.0,0.0,81,0.00,,,0.00,0,Wunderground v.1.15,2017-05-27 01:01:00,
2017-05-26 21:07:00,62.9,56.6,29.86,NNW,339,0.0,0.0,80,0.00,,,0.00,0,Wunderground v.1.15,2017-05-27 01:07:00,
2017-05-26 21:15:00,62.6,56.7,29.86,NNW,339,0.0,0.0,81,0.00,,,0.00,0,Wunderground v.1.15,2017-05-27 01:15:00,